Погода в Николаевке

Россия / Белгородская область     50°12′46″N   38°43′42″E
темп.,
°C
ветер,
м/с
пор.,
м/с
влажн.,
%
обл.,
%
осадки,
мм/ч
давл.,
гПа
погр.,
м
23 апреля, пт
пт2300:00+9ююз337343 0.0 102138
03:00+9ююз337391 0.0 102159
06:00+8ю347959 0.0 102165
09:00+13ю456444 0.0 1020525
12:00+16ююз56499 1.3 10191897
15:00+17юз6743100 1.5 10172435
18:00+15ю365795 0.0 1016345
21:00+12ю41064100 0.0 1015285
24 апреля, сб
сб2400:00+10юз51282100 0.1 1014548
03:00+9юз3892100 4.4 1013587
06:00+5сз7892100 3.3 1014838
09:00+8з677029 3.6 10141167
12:00+10з8105492 0.8 10141947
15:00+10з694792 1.3 10142413
18:00+9з8104884 0.1 10151759
21:00+3зсз51181100 0.3 1017730
25 апреля, вс
вс2500:00+3з612755 0.0 1018756
03:00+2з512805 0.0 1019505
06:00+1зюз49824 0.0 1020295
09:00+6з575697 0.0 10211267
12:00+9з5640100 0.0 10202418
15:00+10зюз4637100 0.0 10192504
18:00+10юз46445 0.0 10181248
21:00+6ююз47585 0.0 1019116
26 апреля, пн
пн2600:00+5ююз496397 0.0 1018171
03:00+3юз237098 0.0 101835
06:00+3ююз3572100 0.0 1017123
09:00+7юз4875100 0.1 1017928
12:00+6зюз4690100 3.0 1017841
15:00+6зсз357930 4.4 1017652
18:00+9з36575 0.1 10151418
21:00+4з33695 0.1 101724
27 апреля, вт
вт2700:00+3з33725 0.0 101730
03:00+2зюз33762 0.0 101729
06:00+2зюз348039 0.0 101771
09:00+7зюз2462100 0.0 1017612
12:00+10юз3551100 0.1 10161662
15:00+9ююв4560100 0.4 10151277
18:00+6ю5887100 1.8 1013946
21:00+6з2890100 5.3 1013587